Weather in Arkhangelskoye

Russia / Kirov Oblast     58°32′40″N   46°54′03″E
temp.,
°C
wind,
m/s
gust,
m/s
humid.,
%
clouds,
%
prec.,
mm/h
press.,
hPa
HPBL,
m
19 april, mon
mon1900:00−1ene4137522 0.0 1032476
03:00−2ene411795 0.0 1033400
06:00−2e411765 0.0 1034409
09:00+3e59500 0.0 10341113
12:00+4e58475 0.0 10341348
15:00+5e57465 0.0 10341350
18:00+4e37604 0.0 1033354
21:00−1e25791 0.0 103488
20 april, tue
tue2000:00−2e29801 0.0 1034174
03:00−3e27801 0.0 1035132
06:00−1e38650 0.0 1034225
09:00+5ese47390 0.0 1034943
12:00+8ese46340 0.0 10331347
15:00+8ese46360 0.0 10311362
18:00+6ese38540 0.0 1030319
21:00+1ese311730 0.0 1029218
21 april, wed
wed2100:00+1ese3127191 0.0 1028289
03:00+1ese41464100 0.0 1027417
06:00+2ese6165985 0.0 1024760
09:00+6se81746100 0.0 10221090
12:00+5se71755100 0.2 10201114
15:00+2se71796100 3.1 1019946
18:00+2se71695100 0.6 1018905
21:00+2sse61596100 1.6 1018791
22 april, thu
thu2200:00+2sse51395100 0.1 1018651
03:00+3sse41196100 0.1 1018534
06:00+3sse41098100 0.0 1019431
09:00+4s4794100 0.0 1019463
12:00+6sse4691100 0.1 1019703
15:00+6sse468698 0.2 1020538
18:00+5sse499098 0.0 1021515
21:00+5sse4119423 0.1 1021409
23 april, fri
fri2300:00+5s3897100 0.1 1021417
03:00+3s259830 0.1 1022114
06:00+4s25945 0.0 1022135
09:00+9s357130 0.0 1023535
12:00+13s345714 0.0 10231284
15:00+14s3453100 0.0 10221486
18:00+11sse2672100 0.0 1022126
21:00+9sse39755 0.0 1022218